Theta_e
308 310 310 311 310 310 310 310 309 309 310 310 310 307 300 299 298 298 298 299 299 303 305 306 306 306 314 317 317 317 312 311 313 313 313 313 313 312 313 312 316 316 315 315 314 313 314
308 308 309 310 309 309 309 309 308 307 308 309 307 302 298 298 298 300 302 300 301 304 306 307 307 308 317 313 315 314 311 313 313 313 314 313 313 313 311 312 313 315 315 314 314 313 314
307 307 309 309 309 309 309 308 307 306 307 304 301 298 298 298 300 304 303 302 303 305 306 306 306 313 311 313 314 312 313 312 313 314 314 314 313 313 312 314 315 315 314 313 313 314 315
307 308 307 307 308 308 308 308 307 306 304 302 300 299 300 299 301 304 304 304 305 306 306 306 308 312 310 310 313 314 313 313 314 314 314 314 314 313 313 312 313 314 313 312 312 314 315
308 305 306 307 307 307 307 307 307 305 304 300 297 299 301 300 301 303 304 304 307 307 307 310 313 312 313 312 313 313 313 313 313 314 314 314 314 313 314 312 310 311 310 312 314 315 316
306 305 304 304 306 307 307 307 306 304 301 297 297 299 300 301 303 304 305 304 306 309 308 311 309 311 309 312 312 311 312 312 312 312 313 315 313 311 311 310 307 311 311 310 309 313 315
306 304 303 300 300 302 305 306 306 304 298 297 297 299 300 301 304 307 309 312 308 309 309 310 310 308 309 311 310 312 312 312 313 312 312 314 310 313 312 311 311 311 311 309 307 309 313
306 304 303 300 300 299 299 302 303 301 298 296 297 299 300 301 304 305 309 309 308 309 311 310 310 309 309 309 311 311 311 311 311 312 312 310 310 311 312 311 311 311 310 309 308 310 309
306 304 303 299 299 299 298 299 299 298 296 296 297 299 301 301 307 308 305 308 309 310 312 310 310 311 310 310 311 311 311 311 312 312 310 311 311 311 311 310 309 309 310 309 308 307 306
307 304 302 301 301 299 298 300 299 297 296 296 296 299 301 302 307 309 307 305 309 310 308 312 312 311 311 309 312 311 311 310 311 311 310 307 310 310 311 311 310 310 308 309 309 307 305
307 305 302 300 300 300 299 298 298 296 296 296 296 300 302 303 306 306 303 305 309 310 303 311 311 309 307 310 311 312 310 311 311 311 307 304 309 309 309 309 309 307 308 307 307 307 305
308 305 302 300 300 301 299 297 296 296 295 295 296 300 300 304 307 303 304 309 310 308 301 310 308 308 307 306 309 311 312 307 307 309 308 308 308 309 309 308 308 308 307 306 305 304 306
308 305 303 299 298 300 300 299 295 295 295 295 296 301 301 301 303 303 307 310 308 304 305 309 309 308 306 306 306 306 304 301 303 300 303 304 306 308 308 309 307 306 307 308 305 308 307
307 305 303 299 297 297 297 296 295 295 295 295 296 300 303 301 301 305 307 304 303 308 308 308 307 306 305 305 304 303 305 303 300 301 302 305 307 307 305 306 307 305 307 308 312 308 304
307 305 302 299 298 297 297 294 293 294 294 295 299 306 305 303 303 306 302 304 306 310 307 307 307 306 305 305 304 302 300 301 299 299 303 303 303 301 302 302 304 303 302 302 303 302 303
307 305 301 298 297 295 295 294 293 294 294 295 301 306 305 300 303 305 301 307 307 305 305 306 306 304 304 305 304 302 301 298 299 297 298 300 300 300 301 300 299 299 299 301 300 303 303
307 305 301 298 297 294 292 291 292 293 293 298 304 301 303 300 302 300 300 306 304 302 305 306 306 305 305 304 304 303 300 297 297 296 295 296 298 298 297 298 295 294 295 294 294 296 300
307 305 300 298 296 294 291 291 292 293 294 298 302 299 299 302 303 300 304 305 303 302 300 304 303 303 304 303 303 303 301 297 295 295 295 294 295 295 294 293 291 291 291 290 291 292 291
306 303 299 297 295 293 291 291 291 293 293 302 299 299 300 303 298 300 301 299 297 300 297 300 300 299 300 302 298 300 297 296 294 292 291 291 290 289 292 294 291 290 290 290 289 289 289
306 302 299 296 295 295 293 290 291 292 293 298 297 300 298 295 294 300 300 300 297 296 296 296 297 297 297 299 297 298 297 296 292 291 293 291 289 288 287 291 291 290 290 290 289 286 289
303 300 296 294 293 293 291 290 291 291 293 297 294 296 298 298 296 297 298 299 297 296 295 294 294 295 294 294 294 294 292 294 291 294 292 290 290 289 290 290 290 291 291 290 289 289 289
302 298 293 295 295 292 290 291 291 292 294 299 296 294 292 293 295 296 296 297 296 294 294 294 294 293 291 291 291 290 290 290 290 293 292 289 289 289 289 290 290 290 289 289 290 291 290
300 296 296 296 293 291 290 291 291 292 294 297 295 294 294 294 294 294 294 295 295 293 292 292 292 291 291 292 291 290 289 289 290 289 289 289 289 290 290 289 290 290 286 290 290 287 286
298 295 296 294 292 290 291 291 290 291 293 297 295 294 293 294 293 294 293 293 293 292 292 291 291 291 291 290 290 290 289 289 289 289 288 289 289 290 289 290 288 286 286 283 282 281 280
298 297 296 294 293 292 291 290 290 291 292 295 293 294 291 291 291 292 292 291 290 290 290 292 291 289 290 290 289 288 289 290 290 289 289 288 288 289 287 287 287 287 284 282 280 280 279
298 297 296 293 293 292 291 289 289 291 291 293 294 295 291 291 290 291 290 290 289 288 289 290 290 290 290 289 289 290 289 289 290 291 289 289 286 286 288 289 289 283 286 284 275 279 279
298 296 296 297 295 292 290 290 289 290 290 291 294 294 291 289 289 289 289 289 289 287 288 289 289 289 289 289 290 290 289 289 288 289 290 287 287 290 288 290 285 283 282 283 281 278 279
297 296 296 296 296 293 290 289 289 289 290 291 292 294 291 289 289 290 289 289 288 287 287 288 288 288 288 289 289 287 286 287 288 287 288 287 287 282 282 281 284 281 282 281 277 278 278
297 296 296 296 295 293 290 289 289 289 290 291 291 291 291 290 288 287 287 288 290 290 288 286 287 288 288 286 286 285 288 285 284 284 284 285 283 286 285 283 281 279 279 278 277 277 277
Wind_Speed
10 8 9 10 12 14 15 16 17 17 17 18 17 17 16 15 14 14 13 11 9 9 8 8 5 2 3 3 1 4 3 4 4 4 4 4 4 2 2 3 1 2 3 4 5 2 3
11 9 9 10 12 13 14 15 16 17 17 17 17 18 17 16 15 14 14 12 9 8 6 5 3 3 2 3 3 4 3 4 6 6 4 6 3 2 3 3 1 1 4 8 6 6 3
11 9 10 11 13 14 15 15 16 17 17 17 18 17 16 15 15 17 14 12 9 6 4 3 3 3 4 1 2 4 4 5 6 6 3 4 4 3 3 4 3 3 5 8 6 5 3
10 9 10 12 13 14 15 16 17 16 16 16 17 16 16 16 15 16 15 11 6 4 4 4 4 4 2 2 3 3 2 1 4 4 4 4 4 2 1 4 3 2 0 3 5 8 2
9 10 10 12 13 15 15 16 17 16 16 16 16 15 16 16 17 15 13 8 4 4 4 3 3 2 2 2 2 4 4 3 3 1 4 3 2 1 3 2 4 2 3 4 6 5 4
8 9 10 11 12 14 15 16 16 15 15 16 15 15 17 16 14 15 11 4 3 4 3 2 2 3 1 1 1 2 2 3 2 3 2 2 2 2 3 3 3 2 3 4 4 3 4
8 8 9 10 11 12 14 16 16 16 15 15 16 15 16 16 11 13 12 3 4 4 8 2 1 2 2 0 0 2 3 4 2 1 2 2 4 3 5 6 5 3 3 4 7 7 6
8 8 10 10 10 12 12 12 14 15 15 14 14 14 15 14 8 12 7 5 3 2 3 2 2 3 1 1 1 4 7 2 1 2 2 4 2 3 2 2 2 3 4 7 8 6 2
9 9 10 10 11 12 12 12 12 13 13 14 14 13 13 11 5 7 11 5 2 1 2 2 1 2 1 2 2 3 5 4 1 2 3 4 2 2 3 4 4 3 4 5 7 5 5
10 10 10 10 10 11 12 12 12 12 12 13 14 13 12 9 2 4 3 3 2 2 4 0 0 1 1 2 2 2 4 1 2 2 4 4 2 2 2 3 1 3 2 3 5 6 2
10 10 10 11 11 12 12 12 12 12 12 12 11 10 9 10 4 3 5 3 2 0 4 1 0 1 1 2 3 1 1 2 2 3 4 6 2 3 1 2 3 5 3 4 4 5 3
10 10 10 11 11 12 12 11 11 12 12 12 12 8 8 3 3 4 4 2 1 6 4 1 1 1 0 0 1 3 2 5 3 2 2 6 3 4 4 4 3 5 5 7 2 2 1
11 11 11 11 10 11 12 12 10 11 12 11 10 5 5 4 3 5 2 2 5 4 2 1 1 1 3 1 2 3 4 7 4 5 5 6 4 2 3 3 6 7 5 4 4 2 5
13 12 11 10 10 10 11 11 11 10 10 10 8 4 3 2 3 1 1 4 2 3 2 1 1 3 2 1 1 2 5 2 6 4 1 2 5 3 3 3 1 2 4 4 6 3 5
14 12 11 9 9 8 10 10 9 10 10 9 5 2 3 2 2 2 4 3 4 1 2 4 4 1 2 1 1 4 3 3 3 5 2 3 4 3 5 1 3 2 0 4 4 4 1
15 13 11 10 9 8 9 10 10 8 9 7 4 3 2 4 1 2 4 4 5 2 2 0 1 1 0 1 1 1 3 3 3 3 2 2 5 3 2 1 4 3 1 2 1 4 7
16 14 11 9 9 8 8 8 8 7 6 2 1 2 2 1 2 4 3 3 3 2 1 2 1 2 1 2 1 2 3 2 2 2 3 1 4 5 4 0 1 4 3 4 1 3 4
18 14 11 10 9 8 7 8 7 6 2 1 1 1 1 5 2 1 3 1 1 2 4 0 2 2 2 1 1 2 4 3 2 1 2 0 2 3 7 8 7 5 3 3 3 4 1
19 14 11 9 7 7 7 8 5 4 3 2 2 2 1 1 2 1 3 3 3 2 3 4 2 3 2 1 2 3 4 4 5 3 2 1 1 3 1 4 5 5 3 1 2 3 5
22 15 11 7 4 7 8 8 6 3 6 4 2 1 3 3 1 6 5 3 3 3 2 2 2 1 1 1 2 2 3 4 4 2 2 2 3 5 5 1 2 3 4 4 4 2 4
23 16 10 6 3 6 9 8 8 4 8 7 2 3 3 2 2 3 4 6 4 3 1 2 1 0 3 4 0 3 3 3 3 3 3 3 3 3 5 5 3 6 9 11 11 7 5
24 18 13 8 5 7 8 8 8 3 10 3 4 4 3 1 1 4 1 3 6 3 4 2 3 4 1 2 1 3 4 3 4 3 3 2 3 3 3 6 6 7 7 7 7 2 2
25 18 13 10 5 5 7 7 7 5 10 2 2 3 4 1 2 4 2 3 3 8 2 3 5 4 2 3 1 2 1 1 1 5 5 3 3 2 3 2 6 7 2 2 2 4 1
25 19 14 9 5 3 3 4 5 4 12 3 2 2 3 1 2 2 3 3 5 2 5 2 5 3 0 3 3 2 2 4 5 5 5 3 1 2 4 3 2 2 3 4 2 3 5
26 21 16 11 7 4 1 2 3 0 11 9 5 3 3 3 4 4 5 7 8 6 4 5 3 1 1 2 2 2 2 2 4 5 6 6 4 1 1 2 1 1 4 3 3 4 1
26 22 17 14 9 6 3 5 3 4 8 12 10 7 6 6 2 3 5 4 4 3 2 2 1 2 2 1 1 2 4 3 2 2 3 4 4 3 1 1 4 1 3 6 3 3 3
28 23 18 14 11 8 6 5 4 6 7 6 8 8 9 4 4 4 2 4 3 4 3 1 1 3 3 1 2 3 3 3 2 4 4 2 1 7 5 5 1 2 7 4 3 5 7
28 24 20 15 11 9 9 7 7 6 6 4 11 6 8 3 7 9 6 4 3 4 4 2 3 3 3 2 1 2 1 2 1 2 1 3 2 2 1 2 5 3 0 0 3 4 6
28 24 22 18 12 10 11 8 6 6 11 15 10 17 21 11 6 22 23 18 12 8 4 3 4 2 2 2 2 2 2 2 1 1 5 0 2 1 1 1 2 3 9 4 2 3 5
Wind_Direction
11 21 20 14 10 11 9 3 360 359 358 357 354 349 348 347 346 345 342 338 335 339 341 339 351 39 111 75 104 332 337 23 20 24 356 0 16 338 318 348 55 168 309 340 327 199 231
5 11 14 13 11 10 5 1 359 358 357 356 351 349 350 349 348 349 345 341 340 341 347 354 18 85 77 114 95 344 39 39 29 17 35 32 16 334 301 275 159 231 288 280 261 233 226
357 8 11 12 11 5 1 0 358 357 357 355 352 352 351 351 349 351 345 341 340 345 2 25 61 72 57 97 59 64 37 34 39 26 21 41 356 44 326 320 306 299 316 310 250 206 194
351 8 9 11 7 1 0 357 355 357 356 354 350 352 353 350 346 351 344 342 347 20 50 66 80 88 94 47 98 15 1 277 45 32 44 359 350 284 258 315 328 275 16 330 297 141 199
345 348 4 8 3 359 357 354 353 355 354 352 352 352 353 350 348 346 345 352 26 53 60 79 56 78 53 105 57 26 10 18 328 298 359 327 351 54 15 66 1 326 250 240 305 190 128
333 341 346 355 3 357 354 352 352 352 351 352 353 351 353 353 354 351 350 351 36 39 36 37 336 46 90 102 334 348 9 16 325 336 358 21 48 52 15 82 238 241 273 302 274 254 189
322 330 341 345 350 354 354 350 349 350 352 352 351 352 353 354 3 355 357 1 13 1 42 101 279 128 63 60 30 60 336 342 255 282 100 265 65 225 233 228 259 306 272 269 278 280 182
309 319 331 340 346 348 349 351 350 349 349 352 353 352 354 356 7 17 21 67 79 304 333 337 64 76 69 358 111 7 355 13 302 327 183 25 229 223 242 116 61 7 323 290 285 293 246
304 312 322 331 338 344 347 347 349 347 347 350 350 352 354 356 18 20 60 68 80 93 131 22 347 68 271 3 74 352 23 345 337 353 21 185 274 53 18 343 349 290 237 267 258 319 327
297 305 316 327 334 340 344 346 346 345 347 350 351 354 358 355 69 15 74 9 61 117 82 200 22 334 359 10 41 358 10 106 329 17 347 255 225 88 2 288 278 270 321 321 333 20 270
286 296 308 318 329 338 342 345 344 343 343 346 350 355 7 30 0 28 341 345 81 55 23 333 70 285 67 71 157 334 350 16 36 318 70 259 104 58 326 229 355 245 312 288 277 270 16
276 286 300 312 327 333 338 339 341 342 342 343 343 353 6 27 354 3 352 22 334 45 264 74 76 254 188 225 155 171 18 19 66 310 235 247 297 186 203 295 227 294 350 324 303 143 295
266 274 289 304 320 329 334 337 336 338 341 340 338 351 16 11 336 335 8 32 32 120 293 20 65 36 349 102 100 28 60 17 44 37 1 329 335 26 54 348 20 30 48 332 327 6 226
258 266 279 295 307 317 326 333 337 337 338 336 331 336 342 311 340 322 69 58 120 265 57 270 281 302 247 10 132 86 122 89 24 19 58 67 334 7 353 100 243 298 149 172 258 223 270
251 260 270 287 300 314 323 330 331 335 335 335 334 341 317 319 324 145 81 67 216 44 334 11 319 271 227 217 169 103 66 103 31 28 117 33 264 1 57 342 108 315 87 161 271 205 247
242 256 264 277 288 306 321 331 333 333 333 337 329 281 199 317 197 134 78 189 153 86 350 7 212 202 81 198 198 141 150 314 121 54 48 31 302 299 343 328 60 117 194 21 6 273 243
233 245 253 270 284 300 310 321 326 332 333 343 319 23 192 209 161 49 158 187 126 86 70 124 208 281 150 159 137 270 108 357 68 343 350 105 161 293 14 20 116 340 31 54 111 190 248
229 237 239 256 280 297 313 323 331 333 325 166 35 330 154 160 56 102 147 81 226 128 6 38 81 68 104 123 258 185 147 84 59 77 91 339 124 267 248 329 87 81 83 85 132 274 228
212 220 229 250 272 296 312 322 330 322 226 152 154 234 60 230 188 124 142 67 56 46 56 20 96 7 347 62 273 62 97 120 71 59 78 46 229 329 275 331 18 61 80 65 239 182 214
207 204 214 237 271 308 309 321 323 294 199 180 91 333 327 51 184 136 152 169 128 21 73 56 130 339 37 145 63 154 133 158 125 112 126 64 227 208 207 176 211 260 307 283 215 168 252
188 181 192 204 298 309 310 324 320 285 193 168 96 230 195 209 290 140 122 143 141 168 101 44 59 168 162 187 176 199 112 138 118 168 164 133 253 259 275 271 262 282 285 276 265 230 193
181 177 177 205 253 305 309 327 322 232 185 178 146 144 27 113 343 107 68 165 152 125 155 206 203 159 131 150 209 166 144 142 179 182 182 177 268 327 287 277 281 275 265 260 255 174 298
169 171 186 200 203 285 297 323 336 202 179 192 163 123 109 305 117 116 184 150 144 127 2 30 141 114 150 125 37 146 43 110 133 155 196 190 191 343 258 284 319 288 279 351 38 58 46
164 170 177 177 176 226 292 312 343 217 200 181 163 135 105 166 94 156 126 102 121 48 137 76 53 86 17 350 324 299 263 260 257 253 179 176 95 200 275 336 271 258 49 117 125 46 27
161 164 166 162 165 185 123 15 7 6 205 198 163 140 115 92 99 69 87 111 77 53 62 73 44 128 12 18 31 307 349 285 252 219 209 177 141 267 222 217 259 335 11 29 100 280 286
164 163 155 160 162 158 144 69 74 94 126 149 114 116 103 120 4 285 128 145 132 109 44 60 52 16 48 90 223 251 229 209 169 273 209 163 111 137 15 262 267 219 311 348 102 283 317
157 152 152 149 154 150 126 101 97 96 156 152 88 109 93 101 6 357 103 150 105 102 107 105 203 8 47 52 228 228 256 178 215 173 173 158 240 217 242 262 245 298 300 310 80 262 344
151 151 147 141 148 140 128 122 101 119 169 156 77 110 107 95 38 49 31 49 56 72 123 232 42 355 30 41 350 288 82 257 67 19 58 171 184 220 2 33 281 298 343 26 245 321 325
149 146 144 150 140 134 114 104 112 122 124 116 86 97 101 87 127 85 66 60 67 61 128 43 152 93 197 76 7 9 346 19 114 269 10 267 136 130 8 225 225 340 96 77 8 290 317